Flag for Germany Weather past 2 weeks in Frankenthal (Pfalz), Rhineland-Palatinate, Germany

Now
36 °F

Partly sunny.


Feels Like: 28 °F
Forecast: 35 / 39 °F
Wind: 10 mph from Southwest

Location: Baden Wurttemberg - Neuostheim

Current Time: Jan 26, 2015 at 11:44:03 AM

Latest Report: Jan 26, 2015 at 10:50 AM


Visibility: 6 mi

Pressure: 30.27 "Hg

Humidity: 93%

Dew point: 34 °F

Location of Frankenthal (Pfalz)Location

Historic Weather in Frankenthal (Pfalz) — Graph

°F

Frankenthal (Pfalz) temperature yesterday

Maximum temperature yesterday: 39 °F (at 2:20 PM)
Minimum temperature yesterday: 28 °F (at 7:20 AM)
Average temperature yesterday: 35 °F

Past Weeks' High & Low Weather Summary

 TemperatureHumidityPressure
High59 °F (Jan 13, 2:50 PM)100% (Jan 16, 10:20 AM)30.45 "Hg (Jan 16, 10:20 AM)
Low28 °F (Jan 19, 5:20 AM)31% (Jan 13, 2:50 PM)29.65 "Hg (Jan 15, 6:50 PM)
Average39 °F79%30.00 "Hg
* Reported Jan 11 10:20 AM — Jan 26 10:50 AM, Frankenthal (Pfalz), Weather by CustomWeather, © 2014

Note: Actual official high and low records may vary slightly from our data, if they occured in-between our weather recording intervals... More about our weather records

Advertising

Frankenthal (Pfalz) weather history for previous 24 hours

 ConditionsComfort  
Time TempWeatherWind HumidityBarometerVisibility
10:50 AM
Jan 26
36 °FPartly sunny.10 mph93%30.27 "Hg6 mi
10:20 AM36 °FPartly sunny.9 mph93%30.30 "Hg5 mi
9:50 AM36 °FPartly sunny.9 mph93%30.30 "HgN/A
9:20 AM36 °FLight snow. Partly sunny.8 mph93%30.30 "HgN/A
8:50 AM36 °FPartly sunny.8 mph93%30.30 "HgN/A
8:20 AM34 °FPartly sunny.7 mph100%30.30 "HgN/A
7:50 AM34 °FPassing clouds.6 mph100%30.30 "HgN/A
7:20 AM34 °FLight snow. Passing clouds.6 mph100%30.33 "Hg4 mi
6:50 AM34 °FLight snow. Passing clouds.6 mph100%30.33 "Hg3 mi
6:20 AM34 °FLight snow. Passing clouds.6 mph100%30.33 "Hg4 mi
5:50 AM34 °FLight snow. Passing clouds.5 mph100%30.33 "Hg4 mi
5:20 AM34 °FLight snow. Passing clouds.3 mph100%30.33 "Hg4 mi
5:20 PM
Jan 25
37 °FOvercast.5 mph81%30.42 "HgN/A
4:50 PM39 °FOvercast.5 mph81%30.42 "HgN/A
4:20 PM39 °FOvercast.6 mph81%30.42 "HgN/A
3:50 PM39 °FPartly sunny.5 mph81%30.39 "HgN/A
3:20 PM39 °FMore clouds than sun.5 mph81%30.39 "HgN/A
2:50 PM39 °FBroken clouds.5 mph81%30.39 "HgN/A
2:20 PM39 °FPartly sunny.3 mph81%30.42 "HgN/A
1:50 PM37 °FMostly cloudy.3 mph87%30.42 "HgN/A
1:20 PM37 °FPartly sunny.3 mph87%30.42 "HgN/A
12:50 PM36 °FMostly cloudy.3 mph93%30.42 "HgN/A
11:50 AM34 °FOvercast.3 mph100%30.45 "Hg5 mi
11:20 AM34 °FMostly cloudy.3 mph100%30.45 "Hg4 mi
Weather by CustomWeather, © 2014

See weather overviewHow to use our weather pages